Time,TemperatureF,DewpointF,PressureIn,WindDirection,WindDirectionDegrees,WindSpeedMPH,WindSpeedGustMPH,Humidity,HourlyPrecipIn,Conditions,Clouds,dailyrainin,SoftwareType,DateUTC
2013-06-14 00:01:00,60.3,46.2,0.00,WSW,254,0.5,3.1,60,0.00,,,0.00,WUHU216CR1000,2013-06-14 07:01:00,
2013-06-14 00:06:00,60.3,46.2,0.00,WSW,254,0.5,2.0,60,0.00,,,0.00,WUHU216CR1000,2013-06-14 07:06:00,
2013-06-14 00:11:00,60.3,46.2,0.00,WSW,254,0.5,2.0,60,0.00,,,0.00,WUHU216CR1000,2013-06-14 07:11:00,
2013-06-14 00:16:00,58.4,46.3,0.00,SW,234,1.6,3.1,64,0.00,,,0.00,WUHU216CR1000,2013-06-14 07:16:00,
2013-06-14 00:21:00,58.4,46.3,0.00,SW,234,1.6,3.1,64,0.00,,,0.00,WUHU216CR1000,2013-06-14 07:21:00,
2013-06-14 00:26:00,58.4,46.3,0.00,SW,234,1.6,3.1,64,0.00,,,0.00,WUHU216CR1000,2013-06-14 07:26:00,
2013-06-14 00:31:00,57.6,46.3,0.00,West,262,2.0,3.5,66,0.00,,,0.00,WUHU216CR1000,2013-06-14 07:31:00,
2013-06-14 00:36:00,57.6,46.3,0.00,West,262,2.0,3.5,66,0.00,,,0.00,WUHU216CR1000,2013-06-14 07:36:00,
2013-06-14 00:41:00,57.6,46.3,0.00,West,262,2.0,3.5,66,0.00,,,0.00,WUHU216CR1000,2013-06-14 07:41:00,
2013-06-14 00:46:00,57.6,46.3,0.00,West,262,2.0,3.5,66,0.00,,,0.00,WUHU216CR1000,2013-06-14 07:46:00,
2013-06-14 00:51:00,57.6,46.1,0.00,SW,231,1.4,3.5,66,0.00,,,0.00,WUHU216CR1000,2013-06-14 07:51:00,
2013-06-14 00:56:00,57.6,46.1,0.00,SW,231,1.4,3.0,66,0.00,,,0.00,WUHU216CR1000,2013-06-14 07:56:00,
2013-06-14 01:01:00,57.0,46.0,0.00,WNW,293,0.9,3.0,66,0.00,,,0.00,WUHU216CR1000,2013-06-14 08:01:00,
2013-06-14 01:06:00,57.0,46.0,0.00,WNW,293,0.9,3.0,66,0.00,,,0.00,WUHU216CR1000,2013-06-14 08:06:00,
2013-06-14 01:11:00,57.0,46.0,0.00,WNW,293,0.9,3.0,66,0.00,,,0.00,WUHU216CR1000,2013-06-14 08:11:00,
2013-06-14 01:16:00,56.0,45.9,0.00,South,179,0.2,3.0,69,0.00,,,0.00,WUHU216CR1000,2013-06-14 08:16:00,
2013-06-14 01:21:00,56.0,45.9,0.00,South,179,0.2,3.0,69,0.00,,,0.00,WUHU216CR1000,2013-06-14 08:21:00,
2013-06-14 01:26:00,56.0,45.9,0.00,South,179,0.2,2.1,69,0.00,,,0.00,WUHU216CR1000,2013-06-14 08:26:00,
2013-06-14 01:31:00,56.0,46.0,0.00,SW,216,0.8,3.1,69,0.00,,,0.00,WUHU216CR1000,2013-06-14 08:31:00,
2013-06-14 01:36:00,56.0,46.0,0.00,SW,216,0.8,3.1,69,0.00,,,0.00,WUHU216CR1000,2013-06-14 08:36:00,
2013-06-14 01:41:00,56.0,46.0,0.00,SW,216,0.8,3.1,69,0.00,,,0.00,WUHU216CR1000,2013-06-14 08:41:00,
2013-06-14 01:46:00,55.6,46.4,0.00,SW,227,2.1,3.6,71,0.00,,,0.00,WUHU216CR1000,2013-06-14 08:46:00,
2013-06-14 01:51:00,55.6,46.4,0.00,SW,227,2.1,3.6,71,0.00,,,0.00,WUHU216CR1000,2013-06-14 08:51:00,
2013-06-14 01:56:00,55.6,46.4,0.00,SW,227,2.1,3.6,71,0.00,,,0.00,WUHU216CR1000,2013-06-14 08:56:00,
2013-06-14 02:01:00,55.6,46.4,0.00,SW,227,2.1,3.6,71,0.00,,,0.00,WUHU216CR1000,2013-06-14 09:01:00,
2013-06-14 02:06:00,55.7,46.4,0.00,SW,232,2.1,3.6,71,0.00,,,0.00,WUHU216CR1000,2013-06-14 09:06:00,
2013-06-14 02:11:00,55.7,46.4,0.00,SW,232,2.1,3.4,71,0.00,,,0.00,WUHU216CR1000,2013-06-14 09:11:00,
2013-06-14 02:16:00,55.7,46.4,0.00,SW,232,2.1,3.4,71,0.00,,,0.00,WUHU216CR1000,2013-06-14 09:16:00,
2013-06-14 02:21:00,55.4,46.5,0.00,WSW,237,1.2,3.4,72,0.00,,,0.00,WUHU216CR1000,2013-06-14 09:21:00,
2013-06-14 02:26:00,55.4,46.5,0.00,WSW,237,1.2,2.7,72,0.00,,,0.00,WUHU216CR1000,2013-06-14 09:26:00,
2013-06-14 02:31:00,55.4,46.5,0.00,WSW,237,1.2,2.7,72,0.00,,,0.00,WUHU216CR1000,2013-06-14 09:31:00,
2013-06-14 02:36:00,54.6,46.2,0.00,NW,305,0.9,2.7,73,0.00,,,0.00,WUHU216CR1000,2013-06-14 09:36:00,
2013-06-14 02:41:00,54.6,46.2,0.00,NW,305,0.9,2.6,73,0.00,,,0.00,WUHU216CR1000,2013-06-14 09:41:00,
2013-06-14 02:46:00,54.6,46.2,0.00,NW,305,0.9,2.6,73,0.00,,,0.00,WUHU216CR1000,2013-06-14 09:46:00,
2013-06-14 02:51:00,53.5,46.4,0.00,WSW,237,0.8,2.6,77,0.00,,,0.00,WUHU216CR1000,2013-06-14 09:51:00,
2013-06-14 02:56:00,53.5,46.4,0.00,WSW,237,0.8,2.1,77,0.00,,,0.00,WUHU216CR1000,2013-06-14 09:56:00,
2013-06-14 03:01:00,53.5,46.4,0.00,WSW,237,0.8,2.1,77,0.00,,,0.00,WUHU216CR1000,2013-06-14 10:01:00,
2013-06-14 03:06:00,53.2,46.7,0.00,WSW,239,0.9,2.2,79,0.00,,,0.00,WUHU216CR1000,2013-06-14 10:06:00,
2013-06-14 03:11:00,53.2,46.7,0.00,WSW,239,0.9,2.2,79,0.00,,,0.00,WUHU216CR1000,2013-06-14 10:11:00,
2013-06-14 03:16:00,52.5,46.9,0.00,West,279,0.8,2.3,81,0.00,,,0.00,WUHU216CR1000,2013-06-14 10:16:00,
2013-06-14 03:21:00,52.5,46.9,0.00,West,279,0.8,2.3,81,0.00,,,0.00,WUHU216CR1000,2013-06-14 10:21:00,
2013-06-14 03:26:00,52.5,46.9,0.00,West,279,0.8,2.3,81,0.00,,,0.00,WUHU216CR1000,2013-06-14 10:26:00,
2013-06-14 03:31:00,52.5,46.9,0.00,West,279,0.8,2.3,81,0.00,,,0.00,WUHU216CR1000,2013-06-14 10:31:00,
2013-06-14 03:36:00,52.9,46.8,0.00,SW,215,1.6,2.4,80,0.00,,,0.00,WUHU216CR1000,2013-06-14 10:36:00,
2013-06-14 03:41:00,52.9,46.8,0.00,SW,215,1.6,2.4,80,0.00,,,0.00,WUHU216CR1000,2013-06-14 10:41:00,
2013-06-14 03:46:00,52.0,46.8,0.00,SW,225,0.8,2.4,82,0.00,,,0.00,WUHU216CR1000,2013-06-14 10:46:00,
2013-06-14 03:51:00,52.0,46.8,0.00,SW,225,0.8,2.1,82,0.00,,,0.00,WUHU216CR1000,2013-06-14 10:51:00,
2013-06-14 03:56:00,52.0,46.8,0.00,SW,225,0.8,2.1,82,0.00,,,0.00,WUHU216CR1000,2013-06-14 10:56:00,
2013-06-14 04:01:00,51.7,46.8,0.00,SW,215,1.9,2.7,83,0.00,,,0.00,WUHU216CR1000,2013-06-14 11:01:00,
2013-06-14 04:06:00,51.7,46.8,0.00,SW,215,1.9,2.7,83,0.00,,,0.00,WUHU216CR1000,2013-06-14 11:06:00,
2013-06-14 04:11:00,51.7,46.8,0.00,SW,215,1.9,2.7,83,0.00,,,0.00,WUHU216CR1000,2013-06-14 11:11:00,
2013-06-14 04:16:00,51.8,47.0,0.00,SW,215,1.4,2.7,84,0.00,,,0.00,WUHU216CR1000,2013-06-14 11:16:00,
2013-06-14 04:21:00,51.8,47.0,0.00,SW,215,1.4,2.3,84,0.00,,,0.00,WUHU216CR1000,2013-06-14 11:21:00,
2013-06-14 04:26:00,51.8,47.0,0.00,SW,215,1.4,2.3,84,0.00,,,0.00,WUHU216CR1000,2013-06-14 11:26:00,
2013-06-14 04:31:00,51.6,46.8,0.00,SW,231,1.9,2.7,84,0.00,,,0.00,WUHU216CR1000,2013-06-14 11:31:00,
2013-06-14 04:36:00,51.6,46.8,0.00,SW,231,1.9,2.7,84,0.00,,,0.00,WUHU216CR1000,2013-06-14 11:36:00,
2013-06-14 04:41:00,51.6,46.8,0.00,SW,231,1.9,2.7,84,0.00,,,0.00,WUHU216CR1000,2013-06-14 11:41:00,
2013-06-14 04:46:00,51.3,46.6,0.00,SW,225,1.0,2.7,84,0.00,,,0.00,WUHU216CR1000,2013-06-14 11:46:00,
2013-06-14 04:51:00,51.3,46.6,0.00,SW,225,1.0,2.2,84,0.00,,,0.00,WUHU216CR1000,2013-06-14 11:51:00,
2013-06-14 04:56:00,51.3,46.6,0.00,SW,225,1.0,2.2,84,0.00,,,0.00,WUHU216CR1000,2013-06-14 11:56:00,
2013-06-14 05:01:00,50.8,46.5,0.00,SSW,212,1.5,2.9,85,0.00,,,0.00,WUHU216CR1000,2013-06-14 12:01:00,
2013-06-14 05:06:00,50.8,46.5,0.00,SSW,212,1.5,2.9,85,0.00,,,0.00,WUHU216CR1000,2013-06-14 12:06:00,
2013-06-14 05:11:00,50.8,46.5,0.00,SSW,212,1.5,2.9,85,0.00,,,0.00,WUHU216CR1000,2013-06-14 12:11:00,
2013-06-14 05:16:00,50.5,46.7,0.00,SW,225,1.9,2.9,86,0.00,,,0.00,WUHU216CR1000,2013-06-14 12:16:00,
2013-06-14 05:21:00,50.5,46.7,0.00,SW,225,1.9,2.7,86,0.00,,,0.00,WUHU216CR1000,2013-06-14 12:21:00,
2013-06-14 05:26:00,50.5,46.7,0.00,SW,225,1.9,2.7,86,0.00,,,0.00,WUHU216CR1000,2013-06-14 12:26:00,
2013-06-14 05:31:00,50.6,46.3,0.00,SW,227,1.5,2.7,85,0.00,,,0.00,WUHU216CR1000,2013-06-14 12:31:00,
2013-06-14 05:36:00,50.6,46.3,0.00,SW,227,1.5,2.7,85,0.00,,,0.00,WUHU216CR1000,2013-06-14 12:36:00,
2013-06-14 05:41:00,50.6,46.3,0.00,SW,227,1.5,2.7,85,0.00,,,0.00,WUHU216CR1000,2013-06-14 12:41:00,
2013-06-14 05:46:00,50.1,46.2,0.00,SSW,213,1.8,3.3,86,0.00,,,0.00,WUHU216CR1000,2013-06-14 12:46:00,
2013-06-14 05:51:00,50.1,46.2,0.00,SSW,213,1.8,3.3,86,0.00,,,0.00,WUHU216CR1000,2013-06-14 12:51:00,
2013-06-14 05:56:00,50.1,46.2,0.00,SSW,213,1.8,3.3,86,0.00,,,0.00,WUHU216CR1000,2013-06-14 12:56:00,
2013-06-14 06:01:00,50.1,46.6,0.00,SW,221,2.0,3.3,88,0.00,,,0.00,WUHU216CR1000,2013-06-14 13:01:00,
2013-06-14 06:06:00,50.1,46.6,0.00,SW,221,2.0,2.9,88,0.00,,,0.00,WUHU216CR1000,2013-06-14 13:06:00,
2013-06-14 06:11:00,50.1,46.6,0.00,SW,221,2.0,2.9,88,0.00,,,0.00,WUHU216CR1000,2013-06-14 13:11:00,
2013-06-14 06:16:00,50.9,46.9,0.00,SSW,213,1.7,2.9,86,0.00,,,0.00,WUHU216CR1000,2013-06-14 13:16:00,
2013-06-14 06:21:00,50.9,46.9,0.00,SSW,213,1.7,2.9,86,0.00,,,0.00,WUHU216CR1000,2013-06-14 13:21:00,
2013-06-14 06:26:00,50.9,46.9,0.00,SSW,213,1.7,2.9,86,0.00,,,0.00,WUHU216CR1000,2013-06-14 13:26:00,
2013-06-14 06:31:00,51.9,47.4,0.00,SW,219,1.6,2.9,85,0.00,,,0.00,WUHU216CR1000,2013-06-14 13:31:00,
2013-06-14 06:36:00,51.9,47.4,0.00,SW,219,1.6,2.5,85,0.00,,,0.00,WUHU216CR1000,2013-06-14 13:36:00,
2013-06-14 06:41:00,51.9,47.4,0.00,SW,219,1.6,2.5,85,0.00,,,0.00,WUHU216CR1000,2013-06-14 13:41:00,
2013-06-14 06:46:00,52.7,47.8,0.00,SW,229,1.9,3.0,83,0.00,,,0.00,WUHU216CR1000,2013-06-14 13:46:00,
2013-06-14 06:51:00,52.7,47.8,0.00,SW,229,1.9,3.0,83,0.00,,,0.00,WUHU216CR1000,2013-06-14 13:51:00,
2013-06-14 06:56:00,52.7,47.8,0.00,SW,229,1.9,3.0,83,0.00,,,0.00,WUHU216CR1000,2013-06-14 13:56:00,
2013-06-14 07:01:00,53.6,48.2,0.00,SW,231,1.5,3.0,82,0.00,,,0.00,WUHU216CR1000,2013-06-14 14:01:00,
2013-06-14 07:06:00,53.6,48.2,0.00,SW,231,1.5,2.7,82,0.00,,,0.00,WUHU216CR1000,2013-06-14 14:06:00,
2013-06-14 07:11:00,53.6,48.2,0.00,SW,231,1.5,2.7,82,0.00,,,0.00,WUHU216CR1000,2013-06-14 14:11:00,
2013-06-14 07:16:00,57.5,48.7,0.00,SSW,213,2.1,3.8,72,0.00,,,0.00,WUHU216CR1000,2013-06-14 14:16:00,
2013-06-14 07:21:00,57.5,48.7,0.00,SSW,213,2.1,3.8,72,0.00,,,0.00,WUHU216CR1000,2013-06-14 14:21:00,
2013-06-14 07:26:00,57.5,48.7,0.00,SSW,213,2.1,3.8,72,0.00,,,0.00,WUHU216CR1000,2013-06-14 14:26:00,
2013-06-14 07:31:00,58.2,48.5,0.00,SW,227,2.1,3.8,70,0.00,,,0.00,WUHU216CR1000,2013-06-14 14:31:00,
2013-06-14 07:36:00,58.2,48.5,0.00,SW,227,2.1,3.5,70,0.00,,,0.00,WUHU216CR1000,2013-06-14 14:36:00,
2013-06-14 07:41:00,58.2,48.5,0.00,SW,227,2.1,3.5,70,0.00,,,0.00,WUHU216CR1000,2013-06-14 14:41:00,
2013-06-14 07:46:00,59.5,48.1,0.00,SW,225,1.0,3.5,66,0.00,,,0.00,WUHU216CR1000,2013-06-14 14:46:00,
2013-06-14 07:51:00,59.5,48.1,0.00,SW,225,1.0,2.6,66,0.00,,,0.00,WUHU216CR1000,2013-06-14 14:51:00,
2013-06-14 07:56:00,59.5,48.1,0.00,SW,225,1.0,2.6,66,0.00,,,0.00,WUHU216CR1000,2013-06-14 14:56:00,
2013-06-14 08:01:00,62.6,48.1,0.00,NE,49,0.3,2.6,59,0.00,,,0.00,WUHU216CR1000,2013-06-14 15:01:00,
2013-06-14 08:06:00,62.6,48.1,0.00,NE,49,0.3,2.6,59,0.00,,,0.00,WUHU216CR1000,2013-06-14 15:06:00,
2013-06-14 08:11:00,62.6,48.1,0.00,NE,49,0.3,2.6,59,0.00,,,0.00,WUHU216CR1000,2013-06-14 15:11:00,
2013-06-14 08:16:00,64.1,47.7,0.00,NNE,15,2.9,6.0,55,0.00,,,0.00,WUHU216CR1000,2013-06-14 15:16:00,
2013-06-14 08:21:00,64.1,47.7,0.00,NNE,15,2.9,6.0,55,0.00,,,0.00,WUHU216CR1000,2013-06-14 15:21:00,
2013-06-14 08:26:00,64.1,47.7,0.00,NNE,15,2.9,6.0,55,0.00,,,0.00,WUHU216CR1000,2013-06-14 15:26:00,
2013-06-14 08:31:00,64.9,48.0,0.00,North,6,2.1,6.0,54,0.00,,,0.00,WUHU216CR1000,2013-06-14 15:31:00,
2013-06-14 08:36:00,64.9,48.0,0.00,North,6,2.1,6.0,54,0.00,,,0.00,WUHU216CR1000,2013-06-14 15:36:00,
2013-06-14 08:41:00,64.9,48.0,0.00,North,6,2.1,4.9,54,0.00,,,0.00,WUHU216CR1000,2013-06-14 15:41:00,
2013-06-14 08:46:00,66.9,48.7,0.00,North,9,1.6,4.9,52,0.00,,,0.00,WUHU216CR1000,2013-06-14 15:46:00,
2013-06-14 08:51:00,66.9,48.7,0.00,North,9,1.6,4.9,52,0.00,,,0.00,WUHU216CR1000,2013-06-14 15:51:00,
2013-06-14 08:56:00,66.9,48.7,0.00,North,9,1.6,4.6,52,0.00,,,0.00,WUHU216CR1000,2013-06-14 15:56:00,
2013-06-14 09:01:00,66.9,48.7,0.00,North,9,1.6,4.6,52,0.00,,,0.00,WUHU216CR1000,2013-06-14 16:01:00,
2013-06-14 09:06:00,68.2,49.3,0.00,NNE,22,0.9,3.9,51,0.00,,,0.00,WUHU216CR1000,2013-06-14 16:06:00,
2013-06-14 09:11:00,68.2,49.3,0.00,NNE,22,0.9,3.9,51,0.00,,,0.00,WUHU216CR1000,2013-06-14 16:11:00,
2013-06-14 09:16:00,68.8,48.7,0.00,NE,43,2.0,5.3,49,0.00,,,0.00,WUHU216CR1000,2013-06-14 16:16:00,
2013-06-14 09:21:00,68.8,48.7,0.00,NE,43,2.0,5.3,49,0.00,,,0.00,WUHU216CR1000,2013-06-14 16:21:00,
2013-06-14 09:26:00,68.8,48.7,0.00,NE,43,2.0,5.3,49,0.00,,,0.00,WUHU216CR1000,2013-06-14 16:26:00,
2013-06-14 09:31:00,68.8,48.7,0.00,NE,43,2.0,5.3,49,0.00,,,0.00,WUHU216CR1000,2013-06-14 16:31:00,
2013-06-14 09:36:00,69.5,48.5,0.00,ENE,65,1.0,5.3,47,0.00,,,0.00,WUHU216CR1000,2013-06-14 16:36:00,
2013-06-14 09:41:00,69.5,48.5,0.00,ENE,65,1.0,4.1,47,0.00,,,0.00,WUHU216CR1000,2013-06-14 16:41:00,
2013-06-14 09:46:00,69.5,48.5,0.00,ENE,65,1.0,4.1,47,0.00,,,0.00,WUHU216CR1000,2013-06-14 16:46:00,
2013-06-14 09:51:00,71.5,49.2,0.00,ENE,57,1.4,4.1,45,0.00,,,0.00,WUHU216CR1000,2013-06-14 16:51:00,
2013-06-14 09:56:00,71.5,49.2,0.00,ENE,57,1.4,3.1,45,0.00,,,0.00,WUHU216CR1000,2013-06-14 16:56:00,
2013-06-14 10:01:00,71.5,49.2,0.00,ENE,57,1.4,3.1,45,0.00,,,0.00,WUHU216CR1000,2013-06-14 17:01:00,
2013-06-14 10:06:00,73.1,49.8,0.00,NNE,29,2.6,5.9,44,0.00,,,0.00,WUHU216CR1000,2013-06-14 17:06:00,
2013-06-14 10:11:00,73.1,49.8,0.00,NNE,29,2.6,5.9,44,0.00,,,0.00,WUHU216CR1000,2013-06-14 17:11:00,
2013-06-14 10:16:00,74.0,49.1,0.00,SSE,154,1.4,5.9,42,0.00,,,0.00,WUHU216CR1000,2013-06-14 17:16:00,
2013-06-14 10:21:00,74.0,49.1,0.00,SSE,154,1.4,4.2,42,0.00,,,0.00,WUHU216CR1000,2013-06-14 17:21:00,
2013-06-14 10:26:00,74.0,49.1,0.00,SSE,154,1.4,4.2,42,0.00,,,0.00,WUHU216CR1000,2013-06-14 17:26:00,
2013-06-14 10:31:00,75.2,49.0,0.00,ENE,75,2.3,5.5,40,0.00,,,0.00,WUHU216CR1000,2013-06-14 17:31:00,
2013-06-14 10:36:00,75.2,49.0,0.00,ENE,75,2.3,5.5,40,0.00,,,0.00,WUHU216CR1000,2013-06-14 17:36:00,
2013-06-14 10:41:00,75.2,49.0,0.00,ENE,75,2.3,5.5,40,0.00,,,0.00,WUHU216CR1000,2013-06-14 17:41:00,
2013-06-14 10:46:00,76.7,49.2,0.00,WNW,290,1.9,5.8,38,0.00,,,0.00,WUHU216CR1000,2013-06-14 17:46:00,
2013-06-14 10:51:00,76.7,49.2,0.00,WNW,290,1.9,5.8,38,0.00,,,0.00,WUHU216CR1000,2013-06-14 17:51:00,
2013-06-14 10:56:00,76.7,49.2,0.00,WNW,290,1.9,5.8,38,0.00,,,0.00,WUHU216CR1000,2013-06-14 17:56:00,
2013-06-14 11:01:00,78.6,46.4,0.00,SW,218,1.6,5.8,32,0.00,,,0.00,WUHU216CR1000,2013-06-14 18:01:00,
2013-06-14 11:06:00,78.6,46.4,0.00,SW,218,1.6,4.8,32,0.00,,,0.00,WUHU216CR1000,2013-06-14 18:06:00,
2013-06-14 11:11:00,78.6,46.4,0.00,SW,218,1.6,4.8,32,0.00,,,0.00,WUHU216CR1000,2013-06-14 18:11:00,
2013-06-14 11:16:00,79.6,47.7,0.00,SW,226,2.2,5.6,33,0.00,,,0.00,WUHU216CR1000,2013-06-14 18:16:00,
2013-06-14 11:21:00,79.6,47.7,0.00,SW,226,2.2,5.6,33,0.00,,,0.00,WUHU216CR1000,2013-06-14 18:21:00,
2013-06-14 11:26:00,79.6,47.7,0.00,SW,226,2.2,5.6,33,0.00,,,0.00,WUHU216CR1000,2013-06-14 18:26:00,
2013-06-14 11:31:00,80.3,45.2,0.00,SW,214,2.5,5.6,29,0.00,,,0.00,WUHU216CR1000,2013-06-14 18:31:00,
2013-06-14 11:36:00,80.3,45.2,0.00,SW,214,2.5,5.0,29,0.00,,,0.00,WUHU216CR1000,2013-06-14 18:36:00,
2013-06-14 11:41:00,80.3,45.2,0.00,SW,214,2.5,5.0,29,0.00,,,0.00,WUHU216CR1000,2013-06-14 18:41:00,
2013-06-14 11:46:00,81.9,44.9,0.00,SSW,193,1.8,5.3,27,0.00,,,0.00,WUHU216CR1000,2013-06-14 18:46:00,
2013-06-14 11:51:00,81.9,44.9,0.00,SSW,193,1.8,5.3,27,0.00,,,0.00,WUHU216CR1000,2013-06-14 18:51:00,
2013-06-14 11:56:00,81.9,44.9,0.00,SSW,193,1.8,5.3,27,0.00,,,0.00,WUHU216CR1000,2013-06-14 18:56:00,
2013-06-14 12:01:00,83.1,46.6,0.00,SW,223,2.3,6.4,28,0.00,,,0.00,WUHU216CR1000,2013-06-14 19:01:00,
2013-06-14 12:06:00,83.1,46.6,0.00,SW,223,2.3,6.4,28,0.00,,,0.00,WUHU216CR1000,2013-06-14 19:06:00,
2013-06-14 12:11:00,83.1,46.6,0.00,SW,223,2.3,6.4,28,0.00,,,0.00,WUHU216CR1000,2013-06-14 19:11:00,
2013-06-14 12:16:00,84.0,44.5,0.00,South,185,2.9,6.4,25,0.00,,,0.00,WUHU216CR1000,2013-06-14 19:16:00,
2013-06-14 12:21:00,84.0,44.5,0.00,South,185,2.9,5.9,25,0.00,,,0.00,WUHU216CR1000,2013-06-14 19:21:00,
2013-06-14 12:26:00,84.0,44.5,0.00,South,185,2.9,5.9,25,0.00,,,0.00,WUHU216CR1000,2013-06-14 19:26:00,
2013-06-14 12:31:00,84.1,43.2,0.00,SW,228,3.6,9.6,24,0.00,,,0.00,WUHU216CR1000,2013-06-14 19:31:00,
2013-06-14 12:36:00,84.1,43.2,0.00,SW,228,3.6,9.6,24,0.00,,,0.00,WUHU216CR1000,2013-06-14 19:36:00,
2013-06-14 12:41:00,84.1,43.2,0.00,SW,228,3.6,9.6,24,0.00,,,0.00,WUHU216CR1000,2013-06-14 19:41:00,
2013-06-14 12:46:00,84.8,43.6,0.00,SSW,206,3.9,9.6,24,0.00,,,0.00,WUHU216CR1000,2013-06-14 19:46:00,
2013-06-14 12:51:00,84.8,43.6,0.00,SSW,206,3.9,9.4,24,0.00,,,0.00,WUHU216CR1000,2013-06-14 19:51:00,
2013-06-14 12:56:00,84.8,43.6,0.00,SSW,206,3.9,9.4,24,0.00,,,0.00,WUHU216CR1000,2013-06-14 19:56:00,
2013-06-14 13:01:00,84.4,47.6,0.00,South,176,5.2,10.4,28,0.00,,,0.00,WUHU216CR1000,2013-06-14 20:01:00,
2013-06-14 13:06:00,84.4,47.6,0.00,South,176,5.2,10.4,28,0.00,,,0.00,WUHU216CR1000,2013-06-14 20:06:00,
2013-06-14 13:11:00,84.4,47.6,0.00,South,176,5.2,10.4,28,0.00,,,0.00,WUHU216CR1000,2013-06-14 20:11:00,
2013-06-14 13:16:00,85.4,47.5,0.00,South,190,4.2,10.4,27,0.00,,,0.00,WUHU216CR1000,2013-06-14 20:16:00,
2013-06-14 13:21:00,85.4,47.5,0.00,South,190,4.2,8.8,27,0.00,,,0.00,WUHU216CR1000,2013-06-14 20:21:00,
2013-06-14 13:26:00,85.4,47.5,0.00,South,190,4.2,8.8,27,0.00,,,0.00,WUHU216CR1000,2013-06-14 20:26:00,
2013-06-14 13:31:00,85.6,46.1,0.00,South,184,3.9,13.6,25,0.00,,,0.00,WUHU216CR1000,2013-06-14 20:31:00,
2013-06-14 13:36:00,85.6,46.1,0.00,South,184,3.9,13.6,25,0.00,,,0.00,WUHU216CR1000,2013-06-14 20:36:00,
2013-06-14 13:41:00,85.6,46.1,0.00,South,184,3.9,13.6,25,0.00,,,0.00,WUHU216CR1000,2013-06-14 20:41:00,
2013-06-14 13:46:00,85.9,45.2,0.00,SSW,192,5.0,13.6,24,0.00,,,0.00,WUHU216CR1000,2013-06-14 20:46:00,
2013-06-14 13:51:00,85.9,45.2,0.00,SSW,192,5.0,10.3,24,0.00,,,0.00,WUHU216CR1000,2013-06-14 20:51:00,
2013-06-14 13:56:00,85.9,45.2,0.00,SSW,192,5.0,10.3,24,0.00,,,0.00,WUHU216CR1000,2013-06-14 20:56:00,
2013-06-14 14:01:00,86.0,43.6,0.00,South,188,5.1,10.5,23,0.00,,,0.00,WUHU216CR1000,2013-06-14 21:01:00,
2013-06-14 14:06:00,86.0,43.6,0.00,South,188,5.1,10.5,23,0.00,,,0.00,WUHU216CR1000,2013-06-14 21:06:00,
2013-06-14 14:11:00,86.0,43.6,0.00,South,188,5.1,10.5,23,0.00,,,0.00,WUHU216CR1000,2013-06-14 21:11:00,
2013-06-14 14:16:00,86.8,42.9,0.00,SSW,200,4.7,11.5,22,0.00,,,0.00,WUHU216CR1000,2013-06-14 21:16:00,
2013-06-14 14:21:00,86.8,42.9,0.00,SSW,200,4.7,11.5,22,0.00,,,0.00,WUHU216CR1000,2013-06-14 21:21:00,
2013-06-14 14:26:00,86.8,42.9,0.00,SSW,200,4.7,11.5,22,0.00,,,0.00,WUHU216CR1000,2013-06-14 21:26:00,
2013-06-14 14:31:00,87.3,42.9,0.00,SSW,204,4.5,11.5,21,0.00,,,0.00,WUHU216CR1000,2013-06-14 21:31:00,
2013-06-14 14:36:00,87.3,42.9,0.00,SSW,204,4.5,10.5,21,0.00,,,0.00,WUHU216CR1000,2013-06-14 21:36:00,
2013-06-14 14:41:00,87.3,42.9,0.00,SSW,204,4.5,10.5,21,0.00,,,0.00,WUHU216CR1000,2013-06-14 21:41:00,
2013-06-14 14:46:00,87.2,42.7,0.00,SW,218,4.6,10.5,21,0.00,,,0.00,WUHU216CR1000,2013-06-14 21:46:00,
2013-06-14 14:51:00,87.2,42.7,0.00,SW,218,4.6,9.4,21,0.00,,,0.00,WUHU216CR1000,2013-06-14 21:51:00,
2013-06-14 14:56:00,87.2,42.7,0.00,SW,218,4.6,9.4,21,0.00,,,0.00,WUHU216CR1000,2013-06-14 21:56:00,
2013-06-14 15:01:00,87.9,42.8,0.00,SSW,206,3.9,11.2,21,0.00,,,0.00,WUHU216CR1000,2013-06-14 22:01:00,
2013-06-14 15:06:00,87.9,42.8,0.00,SSW,206,3.9,11.2,21,0.00,,,0.00,WUHU216CR1000,2013-06-14 22:06:00,
2013-06-14 15:11:00,87.9,42.8,0.00,SSW,206,3.9,11.2,21,0.00,,,0.00,WUHU216CR1000,2013-06-14 22:11:00,
2013-06-14 15:16:00,87.7,41.1,0.00,SSW,213,4.8,11.3,20,0.00,,,0.00,WUHU216CR1000,2013-06-14 22:16:00,
2013-06-14 15:21:00,87.7,41.1,0.00,SSW,213,4.8,11.3,20,0.00,,,0.00,WUHU216CR1000,2013-06-14 22:21:00,
2013-06-14 15:26:00,87.7,41.1,0.00,SSW,213,4.8,11.3,20,0.00,,,0.00,WUHU216CR1000,2013-06-14 22:26:00,
2013-06-14 15:31:00,87.7,40.8,0.00,SW,220,4.5,11.3,19,0.00,,,0.00,WUHU216CR1000,2013-06-14 22:31:00,
2013-06-14 15:36:00,87.7,40.8,0.00,SW,220,4.5,10.2,19,0.00,,,0.00,WUHU216CR1000,2013-06-14 22:36:00,
2013-06-14 15:41:00,87.7,40.8,0.00,SW,220,4.5,10.2,19,0.00,,,0.00,WUHU216CR1000,2013-06-14 22:41:00,
2013-06-14 15:46:00,87.5,39.7,0.00,SW,216,5.0,11.9,19,0.00,,,0.00,WUHU216CR1000,2013-06-14 22:46:00,
2013-06-14 15:51:00,87.5,39.7,0.00,SW,216,5.0,11.9,19,0.00,,,0.00,WUHU216CR1000,2013-06-14 22:51:00,
2013-06-14 15:56:00,87.5,39.7,0.00,SW,216,5.0,11.9,19,0.00,,,0.00,WUHU216CR1000,2013-06-14 22:56:00,
2013-06-14 16:01:00,87.0,39.8,0.00,SW,230,5.2,11.9,19,0.00,,,0.00,WUHU216CR1000,2013-06-14 23:01:00,
2013-06-14 16:06:00,87.0,39.8,0.00,SW,230,5.2,9.6,19,0.00,,,0.00,WUHU216CR1000,2013-06-14 23:06:00,
2013-06-14 16:11:00,87.0,39.8,0.00,SW,230,5.2,9.6,19,0.00,,,0.00,WUHU216CR1000,2013-06-14 23:11:00,
2013-06-14 16:16:00,87.4,39.7,0.00,SW,235,4.3,11.1,19,0.00,,,0.00,WUHU216CR1000,2013-06-14 23:16:00,
2013-06-14 16:21:00,87.4,39.7,0.00,SW,235,4.3,11.1,19,0.00,,,0.00,WUHU216CR1000,2013-06-14 23:21:00,
2013-06-14 16:26:00,87.4,39.7,0.00,SW,235,4.3,11.1,19,0.00,,,0.00,WUHU216CR1000,2013-06-14 23:26:00,
2013-06-14 16:31:00,86.9,38.1,0.00,SW,232,5.6,12.3,18,0.00,,,0.00,WUHU216CR1000,2013-06-14 23:31:00,
2013-06-14 16:36:00,86.9,38.1,0.00,SW,232,5.6,12.3,18,0.00,,,0.00,WUHU216CR1000,2013-06-14 23:36:00,
2013-06-14 16:41:00,86.9,38.1,0.00,SW,232,5.6,12.3,18,0.00,,,0.00,WUHU216CR1000,2013-06-14 23:41:00,
2013-06-14 16:46:00,86.7,37.8,0.00,SW,234,4.6,12.3,18,0.00,,,0.00,WUHU216CR1000,2013-06-14 23:46:00,
2013-06-14 16:51:00,86.7,37.8,0.00,SW,234,4.6,8.9,18,0.00,,,0.00,WUHU216CR1000,2013-06-14 23:51:00,
2013-06-14 16:56:00,86.7,37.8,0.00,SW,234,4.6,8.9,18,0.00,,,0.00,WUHU216CR1000,2013-06-14 23:56:00,
2013-06-14 17:01:00,86.6,36.0,0.00,SW,219,5.0,9.4,17,0.00,,,0.00,WUHU216CR1000,2013-06-15 00:01:00,
2013-06-14 17:06:00,86.6,36.0,0.00,SW,219,5.0,9.4,17,0.00,,,0.00,WUHU216CR1000,2013-06-15 00:06:00,
2013-06-14 17:11:00,86.6,36.0,0.00,SW,219,5.0,9.4,17,0.00,,,0.00,WUHU216CR1000,2013-06-15 00:11:00,
2013-06-14 17:16:00,86.5,36.1,0.00,SW,227,4.3,10.6,17,0.00,,,0.00,WUHU216CR1000,2013-06-15 00:16:00,
2013-06-14 17:21:00,86.5,36.1,0.00,SW,227,4.3,10.6,17,0.00,,,0.00,WUHU216CR1000,2013-06-15 00:21:00,
2013-06-14 17:26:00,86.5,36.1,0.00,SW,227,4.3,10.6,17,0.00,,,0.00,WUHU216CR1000,2013-06-15 00:26:00,
2013-06-14 17:31:00,85.9,35.0,0.00,SW,226,5.0,10.6,16,0.00,,,0.00,WUHU216CR1000,2013-06-15 00:31:00,
2013-06-14 17:36:00,85.9,35.0,0.00,SW,226,5.0,9.8,16,0.00,,,0.00,WUHU216CR1000,2013-06-15 00:36:00,
2013-06-14 17:41:00,85.9,35.0,0.00,SW,226,5.0,9.8,16,0.00,,,0.00,WUHU216CR1000,2013-06-15 00:41:00,
2013-06-14 17:46:00,85.6,33.1,0.00,SW,228,4.0,9.8,15,0.00,,,0.00,WUHU216CR1000,2013-06-15 00:46:00,
2013-06-14 17:51:00,85.6,33.1,0.00,SW,228,4.0,8.4,15,0.00,,,0.00,WUHU216CR1000,2013-06-15 00:51:00,
2013-06-14 17:56:00,85.6,33.1,0.00,SW,228,4.0,8.4,15,0.00,,,0.00,WUHU216CR1000,2013-06-15 00:56:00,
2013-06-14 18:01:00,86.0,31.0,0.00,SSW,207,2.9,8.4,14,0.00,,,0.00,WUHU216CR1000,2013-06-15 01:01:00,
2013-06-14 18:06:00,86.0,31.0,0.00,SSW,207,2.9,6.8,14,0.00,,,0.00,WUHU216CR1000,2013-06-15 01:06:00,
2013-06-14 18:11:00,86.0,31.0,0.00,SSW,207,2.9,6.8,14,0.00,,,0.00,WUHU216CR1000,2013-06-15 01:11:00,
2013-06-14 18:16:00,85.9,28.9,0.00,SSW,201,2.8,6.8,13,0.00,,,0.00,WUHU216CR1000,2013-06-15 01:16:00,
2013-06-14 18:21:00,85.9,28.9,0.00,SSW,201,2.8,6.2,13,0.00,,,0.00,WUHU216CR1000,2013-06-15 01:21:00,
2013-06-14 18:26:00,85.9,28.9,0.00,SSW,201,2.8,6.2,13,0.00,,,0.00,WUHU216CR1000,2013-06-15 01:26:00,
2013-06-14 18:31:00,84.0,41.0,0.00,SE,137,3.6,9.0,22,0.00,,,0.00,WUHU216CR1000,2013-06-15 01:31:00,
2013-06-14 18:36:00,84.0,39.4,0.00,SE,137,3.6,9.0,22,0.00,,,0.00,WUHU216CR1000,2013-06-15 01:36:00,
2013-06-14 18:41:00,84.0,39.4,0.00,SE,137,3.6,9.0,22,0.00,,,0.00,WUHU216CR1000,2013-06-15 01:41:00,
2013-06-14 18:46:00,79.3,49.7,0.00,East,101,5.6,10.2,36,0.00,,,0.00,WUHU216CR1000,2013-06-15 01:46:00,
2013-06-14 18:51:00,79.3,49.9,0.00,East,101,5.6,10.2,36,0.00,,,0.00,WUHU216CR1000,2013-06-15 01:51:00,
2013-06-14 18:56:00,79.3,49.9,0.00,East,101,5.6,10.2,36,0.00,,,0.00,WUHU216CR1000,2013-06-15 01:56:00,
2013-06-14 19:01:00,76.3,50.6,0.00,ESE,105,6.5,10.2,41,0.00,,,0.00,WUHU216CR1000,2013-06-15 02:01:00,
2013-06-14 19:06:00,76.3,50.6,0.00,ESE,105,6.5,10.2,41,0.00,,,0.00,WUHU216CR1000,2013-06-15 02:06:00,
2013-06-14 19:11:00,76.3,50.6,0.00,ESE,105,6.5,10.2,41,0.00,,,0.00,WUHU216CR1000,2013-06-15 02:11:00,
2013-06-14 19:16:00,72.7,50.1,0.00,ESE,105,7.2,12.2,45,0.00,,,0.00,WUHU216CR1000,2013-06-15 02:16:00,
2013-06-14 19:21:00,72.7,50.1,0.00,ESE,105,7.2,12.2,45,0.00,,,0.00,WUHU216CR1000,2013-06-15 02:21:00,
2013-06-14 19:26:00,72.7,50.1,0.00,ESE,105,7.2,12.2,45,0.00,,,0.00,WUHU216CR1000,2013-06-15 02:26:00,
2013-06-14 19:31:00,69.9,49.3,0.00,ESE,111,6.8,12.2,48,0.00,,,0.00,WUHU216CR1000,2013-06-15 02:31:00,
2013-06-14 19:36:00,69.9,49.3,0.00,ESE,111,6.8,10.6,48,0.00,,,0.00,WUHU216CR1000,2013-06-15 02:36:00,
2013-06-14 19:41:00,69.9,49.3,0.00,ESE,111,6.8,10.6,48,0.00,,,0.00,WUHU216CR1000,2013-06-15 02:41:00,
2013-06-14 19:46:00,67.6,49.1,0.00,ESE,114,5.6,10.6,51,0.00,,,0.00,WUHU216CR1000,2013-06-15 02:46:00,
2013-06-14 19:51:00,67.6,49.1,0.00,ESE,114,5.6,10.1,51,0.00,,,0.00,WUHU216CR1000,2013-06-15 02:51:00,
2013-06-14 19:56:00,67.6,49.1,0.00,ESE,114,5.6,10.1,51,0.00,,,0.00,WUHU216CR1000,2013-06-15 02:56:00,
2013-06-14 20:01:00,65.3,48.6,0.00,ESE,103,4.7,10.1,55,0.00,,,0.00,WUHU216CR1000,2013-06-15 03:01:00,
2013-06-14 20:06:00,65.3,48.6,0.00,ESE,103,4.7,8.6,55,0.00,,,0.00,WUHU216CR1000,2013-06-15 03:06:00,
2013-06-14 20:11:00,65.3,48.6,0.00,ESE,103,4.7,8.6,55,0.00,,,0.00,WUHU216CR1000,2013-06-15 03:11:00,
2013-06-14 20:16:00,63.7,48.4,0.00,ESE,107,3.8,8.6,57,0.00,,,0.00,WUHU216CR1000,2013-06-15 03:16:00,
2013-06-14 20:21:00,63.7,48.4,0.00,ESE,107,3.8,7.2,57,0.00,,,0.00,WUHU216CR1000,2013-06-15 03:21:00,
2013-06-14 20:26:00,63.7,48.4,0.00,ESE,107,3.8,7.2,57,0.00,,,0.00,WUHU216CR1000,2013-06-15 03:26:00,
2013-06-14 20:31:00,62.1,48.1,0.00,East,93,3.8,7.2,60,0.00,,,0.00,WUHU216CR1000,2013-06-15 03:31:00,
2013-06-14 20:36:00,62.1,48.1,0.00,East,93,3.8,5.9,60,0.00,,,0.00,WUHU216CR1000,2013-06-15 03:36:00,
2013-06-14 20:41:00,62.1,48.1,0.00,East,93,3.8,5.9,60,0.00,,,0.00,WUHU216CR1000,2013-06-15 03:41:00,
2013-06-14 20:46:00,60.7,48.0,0.00,East,88,4.0,6.7,63,0.00,,,0.00,WUHU216CR1000,2013-06-15 03:46:00,
2013-06-14 20:51:00,60.7,48.0,0.00,East,88,4.0,6.7,63,0.00,,,0.00,WUHU216CR1000,2013-06-15 03:51:00,
2013-06-14 20:56:00,60.7,48.0,0.00,East,88,4.0,6.7,63,0.00,,,0.00,WUHU216CR1000,2013-06-15 03:56:00,
2013-06-14 21:01:00,60.7,48.0,0.00,East,88,4.0,6.7,63,0.00,,,0.00,WUHU216CR1000,2013-06-15 04:01:00,
2013-06-14 21:06:00,59.7,47.9,0.00,East,94,2.8,6.7,65,0.00,,,0.00,WUHU216CR1000,2013-06-15 04:06:00,
2013-06-14 21:11:00,59.7,47.9,0.00,East,94,2.8,6.7,65,0.00,,,0.00,WUHU216CR1000,2013-06-15 04:11:00,
2013-06-14 21:16:00,58.4,47.9,0.00,ESE,109,2.8,6.7,68,0.00,,,0.00,WUHU216CR1000,2013-06-15 04:16:00,
2013-06-14 21:21:00,58.4,47.9,0.00,ESE,109,2.8,4.7,68,0.00,,,0.00,WUHU216CR1000,2013-06-15 04:21:00,
2013-06-14 21:26:00,58.4,47.9,0.00,ESE,109,2.8,4.7,68,0.00,,,0.00,WUHU216CR1000,2013-06-15 04:26:00,
2013-06-14 21:31:00,57.3,47.9,0.00,ESE,111,2.3,4.7,71,0.00,,,0.00,WUHU216CR1000,2013-06-15 04:31:00,
2013-06-14 21:36:00,57.3,47.9,0.00,ESE,111,2.3,3.9,71,0.00,,,0.00,WUHU216CR1000,2013-06-15 04:36:00,
2013-06-14 21:41:00,57.3,47.9,0.00,ESE,111,2.3,3.9,71,0.00,,,0.00,WUHU216CR1000,2013-06-15 04:41:00,
2013-06-14 21:46:00,56.8,47.9,0.00,East,89,2.7,4.9,72,0.00,,,0.00,WUHU216CR1000,2013-06-15 04:46:00,
2013-06-14 21:51:00,56.8,47.9,0.00,East,89,2.7,4.9,72,0.00,,,0.00,WUHU216CR1000,2013-06-15 04:51:00,
2013-06-14 21:56:00,56.8,47.9,0.00,East,89,2.7,4.9,72,0.00,,,0.00,WUHU216CR1000,2013-06-15 04:56:00,
2013-06-14 22:01:00,56.0,47.8,0.00,ENE,77,2.9,4.9,74,0.00,,,0.00,WUHU216CR1000,2013-06-15 05:01:00,
2013-06-14 22:06:00,56.0,47.8,0.00,ENE,77,2.9,4.9,74,0.00,,,0.00,WUHU216CR1000,2013-06-15 05:06:00,
2013-06-14 22:11:00,56.0,47.8,0.00,ENE,77,2.9,4.9,74,0.00,,,0.00,WUHU216CR1000,2013-06-15 05:11:00,
2013-06-14 22:16:00,55.0,47.7,0.00,ENE,74,2.6,4.9,76,0.00,,,0.00,WUHU216CR1000,2013-06-15 05:16:00,
2013-06-14 22:21:00,55.0,47.7,0.00,ENE,74,2.6,4.2,76,0.00,,,0.00,WUHU216CR1000,2013-06-15 05:21:00,
2013-06-14 22:26:00,55.0,47.7,0.00,ENE,74,2.6,4.2,76,0.00,,,0.00,WUHU216CR1000,2013-06-15 05:26:00,
2013-06-14 22:31:00,55.0,47.7,0.00,ENE,74,2.6,4.2,76,0.00,,,0.00,WUHU216CR1000,2013-06-15 05:31:00,
2013-06-14 22:36:00,54.4,47.6,0.00,ENE,72,2.1,3.8,78,0.00,,,0.00,WUHU216CR1000,2013-06-15 05:36:00,
2013-06-14 22:41:00,54.4,47.6,0.00,ENE,72,2.1,3.8,78,0.00,,,0.00,WUHU216CR1000,2013-06-15 05:41:00,
2013-06-14 22:46:00,53.9,47.6,0.00,ENE,68,1.7,3.8,79,0.00,,,0.00,WUHU216CR1000,2013-06-15 05:46:00,
2013-06-14 22:51:00,53.9,47.6,0.00,ENE,68,1.7,3.1,79,0.00,,,0.00,WUHU216CR1000,2013-06-15 05:51:00,
2013-06-14 22:56:00,53.9,47.6,0.00,ENE,68,1.7,3.1,79,0.00,,,0.00,WUHU216CR1000,2013-06-15 05:56:00,
2013-06-14 23:01:00,53.5,47.5,0.00,ENE,67,1.8,3.1,80,0.00,,,0.00,WUHU216CR1000,2013-06-15 06:01:00,
2013-06-14 23:06:00,53.5,47.5,0.00,ENE,67,1.8,3.0,80,0.00,,,0.00,WUHU216CR1000,2013-06-15 06:06:00,
2013-06-14 23:11:00,53.5,47.5,0.00,ENE,67,1.8,3.0,80,0.00,,,0.00,WUHU216CR1000,2013-06-15 06:11:00,
2013-06-14 23:16:00,52.9,47.5,0.00,ENE,72,1.9,3.0,82,0.00,,,0.00,WUHU216CR1000,2013-06-15 06:16:00,
2013-06-14 23:21:00,52.9,47.5,0.00,ENE,72,1.9,2.9,82,0.00,,,0.00,WUHU216CR1000,2013-06-15 06:21:00,
2013-06-14 23:26:00,52.9,47.5,0.00,ENE,72,1.9,2.9,82,0.00,,,0.00,WUHU216CR1000,2013-06-15 06:26:00,
2013-06-14 23:31:00,52.5,47.3,0.00,East,83,1.3,2.9,82,0.00,,,0.00,WUHU216CR1000,2013-06-15 06:31:00,
2013-06-14 23:36:00,52.5,47.3,0.00,East,83,1.3,2.5,82,0.00,,,0.00,WUHU216CR1000,2013-06-15 06:36:00,
2013-06-14 23:41:00,52.5,47.3,0.00,East,83,1.3,2.5,82,0.00,,,0.00,WUHU216CR1000,2013-06-15 06:41:00,
2013-06-14 23:46:00,52.4,47.3,0.00,NE,56,0.6,2.5,82,0.00,,,0.00,WUHU216CR1000,2013-06-15 06:46:00,
2013-06-14 23:51:00,52.4,47.3,0.00,NE,56,0.6,1.5,82,0.00,,,0.00,WUHU216CR1000,2013-06-15 06:51:00,
2013-06-14 23:56:00,52.4,47.3,0.00,NE,56,0.6,1.5,82,0.00,,,0.00,WUHU216CR1000,2013-06-15 06:56:00,